COSMOS 1275 DEB, 17631

Orbit data source: Space-Track

COSMOS 1275 DEB, 17631 is space debris in LEO originally from a launch on Thu, 04 Jun 1981 UTC launched from the Plesetsk Missile And Space Complex (PKMTR). Debris objects in space refer to the collection of defunct objects orbiting the Earth. Examples of debris include non-operational satellites, rocket bodies, and fragments generated from explosions, collisions, or faulty payload assembly.

Loading next visibility...
Identifier
17631, 1981-053LA
Orbit
LEO
Country
Flag of CISCIS
Related business
Manufacturer
Unknown
Mission
Spacecraft
Bus & Motor
Unknown
Mass
Unknown
Launch date (UTC)
1981-06-04 (45 years ago)
Launch vehicle
Unknown
Launch site
Plesetsk Missile And Space Complex (PKMTR)
Object type
Payload
Rocket body
Debris
Shape & HBR
Unknown shape, 0.1 m
Radar Cross Section
Small (<0.1 m²)

Expand to show TLE details & history
Last TLE update: 2 days ago

TLE from 2 days ago
0 COSMOS 1275 DEB
1 17631U 81053LA  26032.86635067  .00000842  00000-0  92692-3 0  9994
2 17631  82.9303 325.8695 0127462  97.1097 324.6012 13.67491469 23258
Epoch: 2026-02-01T20:47Z
TLE epoch observation values (Epoch: 2026-02-01T20:47:32.697Z)
Latitude
60.17575°
Longitude
-105.65896°
Altitude
942.476 km
Speed
7.424 km/s
True Right ascension
22h 33m 11s
True Declination
60° 01' 51"
Sunlit
Object was in daylight at epoch
Visualization orbit readout
Latitude
Unknown
Longitude
Unknown
Altitude
Unknown
Speed
Unknown
Apparent Right ascension
Unknown
Apparent Declination
Unknown
Sunlit
N/A
Visualization observer readout
Local Sidereal Time
04:47:10
Azimuth
Unknown
Elevation
Unknown
Doppler factor
Unknown
Orbital elements
Apogee altitude
1,099.866 km
Perigee altitude
911.633 km
Semi-major axis
7,383.887 km
Eccentricity
0.01275
Inclination
82.9303°
RAAN
325.8695°
Arg. of periapsis
97.1097°
True anomaly
323.74403°
Mean anomaly
324.6012°
Eccentric anomaly
324.17373°
Mean motion
3.42071 °/min
Orbital period
105.24 mins
BSTAR
0.00092692
Loading maneuver chart data...
Computing Atmospheric mass density...
Loading historical data...
Loading historical data...
Loading historical data...
Loading historical data...
Loading historical data...
Loading historical data...
Loading historical data...

Documentation

Showing up to 5 results
|